Regional Weather Roundup
Issued by NWS State College, PA

Home | Current Version | Previous Version | Graphics & Text | Print | Product List | Glossary On
Versions: 1 2 3 4 5 6 7 8 9 10 11 12 13 14 15 16 17 18 19 20 21 22 23 24 25 26 27 28 29 30 31 32 33 34 35 36 37 38 39 40 41 42 43 44 45 46 47 48 49 50
000
ASUS41 KCTP 101410
RWRCTP

REGIONAL WEATHER ROUNDUP
NATIONAL WEATHER SERVICE STATE COLLEGE PA
900 AM EST SAT DEC 10 2016

Note: "fair" indicates few or no clouds below 12,000 feet with no
significant weather and/or obstructions to visibility.

* = STATION THAT DOES NOT REPORT PRECIPITATION /E.G. RAIN...SNOW...ETC/
    THUNDER OR FOG.

PAZ002>004-007>009-013>016-020>023-029>032-101500-
WESTERN PENNSYLVANIA

CITY           SKY/WX    TMP DP  RH WIND       PRES   REMARKS
ERIE           LGT SNOW  28  20  71 W17G24    30.38F
MEADVILLE      LGT SNOW  20  17  88 SW12      30.37S VSB 1   WCI   8
FRANKLIN*        N/A     21  14  73 SW12      30.38S WCI   9
NEW CASTLE     CLOUDY    24  16  71 W13       30.44S WCI  12
BEAVER COUNTY  CLOUDY    23  16  74 SW15G21   30.43R WCI  10
BUTLER*        MOSUNNY   23  16  74 W15       30.45S WCI  10
PITTSBURGH INT LGT SNOW  25  18  74 SW9       30.46R
PITTSBURGH     CLOUDY    23  16  74 W9        30.45R WCI  13
INDIANA*       CLOUDY    25  18  74 W14G20    30.44R WCI  13
LATROBE        LGT SNOW  23  19  86 W14       30.47R WCI  11
WASHINGTON CO* CLOUDY    23  16  74 SW10      30.48R WCI  12
$$

PAZ004>006-010>012-017>019-024>028-033>037-041-042-045-046-049>053-101500-
CENTRAL PENNSYLVANIA

CITY           SKY/WX    TMP DP  RH WIND       PRES   REMARKS
BRADFORD       LGT SNOW  20  17  88 W7        30.28S VSB 3/4 WCI  11
DUBOIS         CLOUDY    21  14  74 W12       30.34R HAZE    WCI   9
CLEARFIELD     LGT SNOW  22  17  81 W13G18    30.37R WCI  10
JOHNSTOWN      CLOUDY    19  15  84 W13G20    30.34R WCI   6
ALTOONA        CLOUDY    24  19  81 W8        30.40R
STATE COLLEGE  CLOUDY    25  14  63 W13G24    30.39R WCI  13
WILLIAMSPORT   CLOUDY    30  18  60 W16       30.38R
SELINSGROVE    MOSUNNY   28  19  69 W7        30.42R
FT INDIANTOWN  MOSUNNY   29  16  57 W13       30.42R
CAPITAL CITY   SUNNY     31  16  54 W9        30.44R
HARRISBURG     MOSUNNY   31  19  61 W12       30.44R
YORK           MOSUNNY   28  18  66 W7        30.44S
$$

PAZ038>040-043-044-047-048-054-055-060>062-067>071-101500-
EASTERN PENNSYLVANIA

CITY           SKY/WX    TMP DP  RH WIND       PRES   REMARKS
SCRANTON       CLOUDY    27  20  75 SW10      30.34R
MOUNT POCONO   LGT SNOW  21  16  81 W8        30.26S WCI  11
ALLENTOWN      MOSUNNY   30  19  63 SW7       30.40R
QUAKERTOWN*    MOSUNNY   28  19  69 SW7       30.41R
READING        MOSUNNY   30  17  58 W8        30.42R
LANCASTER      MOSUNNY   29  19  66 SW8       30.43S
COATESVILLE    MOSUNNY   28  18  64 W12       30.43S
POTTSTOWN      MOSUNNY   29  18  63 W8        30.44R
BLUE BELL      MOSUNNY   30  19  64 W8        30.42S
DOYLESTOWN     MOSUNNY   30  19  63 VRB6      30.41R
WILLOW GROVE   NOT AVBL
NORTH PHILA    MOSUNNY   33  19  56 W12       30.46R
PHILADELPHIA   PTSUNNY   31  17  56 NW10      30.46S
$$



USA.gov is the U.S. government's official web portal to all federal, state and local government web resources and services.